[[{"header":{"parameterUnit":"m.s-1","parameterCategory":1,"la1":30.2991,"la2":30.254,"lo1":-89.0895,"lo2":-89.0444,"dy":0.0017,"dx":0.0017,"nx":28,"ny":28,"refTime":"2024-12-16T03:00:00:Z","depth":0,"parameterNumber":2,"parameterNumberName":"U-component_of_WINDS"},"data":[0,0,0,0,0,0,0,0,0,0,0,0,0,0,0,0,0,0,0,0,0,0,0,0,0,0,0,0,0,0,0,0,0,0,0,0,0,0,0,0,0,0,0,0,0,0,0,0,0,0,0,0,0,0,0,0,0,0,-1.2135,-1.2134,0,-1.2093,-1.2092,-1.2092,-1.201,-1.2008,-1.2007,-1.2005,-1.1964,-1.1965,-1.1965,0,0,0,0,0,0,0,0,0,0,0,0,0,-1.2148,-1.2148,-1.2135,-1.2134,-1.2134,-1.2093,-1.2092,-1.2092,-1.201,-1.2008,-1.2006,-1.2005,-1.1964,-1.1964,-1.1965,0,0,0,0,0,0,0,0,0,0,0,0,0,-1.2128,-1.2148,-1.2135,-1.2088,-1.2084,-1.2093,-1.2092,-1.2091,-1.2011,-1.2008,-1.2006,-1.2004,-1.1964,-1.1964,-1.1965,-1.2017,0,0,-1.1967,-1.1967,0,0,0,0,0,0,0,0,-1.2129,-1.2127,-1.2096,-1.2092,-1.2086,-1.2054,-1.2081,-1.2066,-1.2011,-1.2039,-1.2005,-1.2002,-1.1996,-1.1994,-1.1991,-1.2015,-1.2013,-1.1967,-1.1967,-1.1968,-1.1968,0,0,0,0,0,0,0,-1.213,-1.2129,-1.2118,-1.2095,-1.209,-1.207,-1.2065,-1.2078,-1.2031,-1.2036,-1.203,-1.2026,-1.1993,-1.1991,-1.199,-1.2013,-1.1967,-1.1967,-1.1968,-1.1968,-1.2077,-1.208,0,0,0,0,0,0,-1.2138,-1.213,-1.2119,-1.2117,-1.2102,-1.2072,-1.2066,-1.2067,-1.2031,-1.2023,-1.2028,-1.2022,-1.1991,-1.1989,-1.1988,-1.2047,-1.1967,-1.1968,-1.1968,-1.2075,-1.2078,-1.2081,0,0,0,0,0,0,-1.2139,-1.2138,-1.2121,-1.2122,-1.2118,-1.2074,-1.2076,-1.2067,-1.2065,-1.2025,-1.2016,-1.2034,-1.1989,-1.1987,-1.201,-1.2044,-1.1968,-1.1969,-1.2072,-1.2076,-1.2079,-1.2165,0,0,0,0,0,0,-1.214,-1.2139,-1.2157,-1.2123,-1.2119,-1.2144,-1.2078,-1.2068,-1.2066,-1.2058,-1.2029,-1.2021,-1.1987,-1.201,-1.2011,-1.2044,-1.1969,-1.2069,-1.2074,-1.2078,-1.2159,-1.2171,-1.2182,0,0,0,0,0,-1.214,-1.2183,-1.2159,-1.2158,-1.2141,-1.2146,-1.2143,-1.2103,-1.2069,-1.2088,-1.2062,-1.2022,-1.204,-1.2013,-1.2013,-1.2047,-1.2066,-1.2072,-1.2078,-1.2154,-1.2169,-1.2182,0,0,0,0,0,0,-1.2223,-1.2178,-1.215,-1.2183,-1.2169,-1.2132,-1.2154,-1.212,-1.2115,-1.2108,-1.2058,-1.2052,-1.2082,-1.2067,-1.2037,-1.2096,-1.2047,-1.2053,-1.2105,-1.2119,-1.213,-1.2133,-1.197,0,0,0,0,0,-1.2246,-1.2253,-1.2213,-1.2246,-1.224,-1.2199,-1.22,-1.2169,-1.2153,-1.2147,-1.2122,-1.2109,-1.2111,-1.2114,-1.2114,-1.2156,-1.2149,-1.218,-1.2191,-1.2201,-1.2207,-1.2229,-1.2242,-1.21,-1.21,-1.21,0,0,-1.2292,-1.2268,-1.2275,-1.2262,-1.2247,-1.2257,-1.2194,-1.2207,-1.2213,-1.2149,-1.2169,-1.2151,-1.2132,-1.2166,-1.2179,-1.2154,-1.2245,-1.2208,-1.2216,-1.2217,-1.2236,-1.225,-1.2262,-1.2104,-1.2103,-1.2102,0,0,-1.238,-1.2362,-1.2388,-1.2375,-1.2353,-1.2326,-1.2332,-1.2301,-1.2286,-1.2306,-1.2257,-1.2265,-1.227,-1.2259,-1.2254,-1.234,-1.2303,-1.2341,-1.2401,-1.2424,-1.2435,-1.2445,-1.2476,-1.2488,-1.2347,-1.2348,-1.2348,0,-1.244,-1.2451,-1.2406,-1.2422,-1.2418,-1.2359,-1.2386,-1.2375,-1.2356,-1.2355,-1.2326,-1.2332,-1.2315,-1.2346,-1.2367,-1.2364,-1.2371,-1.2345,-1.2437,-1.2446,-1.2454,-1.2484,-1.2496,-1.2353,-1.2352,-1.2351,-1.2351,0,-1.2527,-1.2536,-1.2559,-1.2541,-1.254,-1.2561,-1.252,-1.2524,-1.2494,-1.247,-1.2492,-1.2469,-1.2464,-1.2469,-1.244,-1.2496,-1.2481,-1.2446,-1.2396,-1.2474,-1.25,-1.2511,-1.2359,-1.2358,-1.2356,-1.2355,0,0,-1.2666,-1.2623,-1.2633,-1.2624,-1.2596,-1.2603,-1.2622,-1.2616,-1.2622,-1.261,-1.2625,-1.2632,-1.2599,-1.2593,-1.2563,-1.2582,-1.2653,-1.2544,-1.2543,-1.2566,-1.2714,-1.2741,-1.2754,-1.2628,-1.263,-1.2631,-1.2715,0,-1.2749,-1.2778,-1.2739,-1.2777,-1.2785,-1.273,-1.2746,-1.2732,-1.271,-1.2715,-1.269,-1.2696,-1.2652,-1.2648,-1.2665,-1.2641,-1.2682,-1.2634,-1.2643,-1.2644,-1.265,-1.2768,-1.2797,-1.2877,-1.2725,-1.2727,-1.2728,0,-1.285,-1.2843,-1.2882,-1.2852,-1.2854,-1.287,-1.2862,-1.2867,-1.285,-1.2833,-1.2827,-1.2791,-1.2808,-1.276,-1.2784,-1.2752,-1.2754,-1.2743,-1.2745,-1.2744,-1.2691,-1.2772,-1.2901,-1.2914,-1.2744,-1.2743,-1.2742,0,-1.2948,-1.2949,-1.2972,-1.2967,-1.2933,-1.2945,-1.2932,-1.2912,-1.2912,-1.2906,-1.2905,-1.2901,-1.2899,-1.2898,-1.2862,-1.2829,-1.2891,-1.2839,-1.2878,-1.2879,-1.2893,-1.2893,-1.3026,-1.2894,-1.2893,-1.2893,-1.2893,0,-1.3045,-1.3072,-1.3016,-1.3031,-1.3059,-1.3014,-1.3043,-1.3024,-1.3008,-1.3019,-1.2971,-1.2982,-1.2933,-1.294,-1.2912,-1.2937,-1.2936,-1.2923,-1.2916,-1.2928,-1.293,-1.2928,-1.2922,-1.2896,-1.2896,-1.2895,-1.2894,0,-1.316,-1.3124,-1.3146,-1.3113,-1.3105,-1.3127,-1.3099,-1.3112,-1.3087,-1.3101,-1.3102,-1.3063,-1.3069,-1.3032,-1.3031,-1.3012,-1.3051,-1.3033,-1.3057,-1.3051,-1.3092,-1.3089,-1.3229,-1.3246,-1.3103,-1.3104,-1.3106,0,-1.3225,-1.3244,-1.3212,-1.3215,-1.3204,-1.3211,-1.321,-1.3166,-1.3168,-1.315,-1.3166,-1.3167,-1.3165,-1.3177,-1.3149,-1.3148,-1.3131,-1.318,-1.313,-1.3142,-1.3132,-1.3132,-1.3134,-1.319,-1.3192,-1.3194,-1.3195,0,-1.3343,-1.3324,-1.3325,-1.332,-1.332,-1.3314,-1.3305,-1.3311,-1.3263,-1.3268,-1.3272,-1.3271,-1.327,-1.3272,-1.3266,-1.3253,-1.3217,-1.3211,-1.322,-1.3233,-1.3246,-1.324,-1.3086,-1.3208,-1.3206,-1.3205,-1.3205,-1.3204,-1.3435,-1.345,-1.343,-1.3432,-1.3421,-1.3413,-1.3424,-1.34,-1.3403,-1.3398,-1.3373,-1.3382,-1.3366,-1.3353,-1.3344,-1.3352,-1.3328,-1.3341,-1.3344,-1.3348,-1.3356,-1.3244,-1.335,-1.335,-1.3349,-1.3349,-1.3349,0,-1.3551,-1.3536,-1.3539,-1.3527,-1.353,-1.3494,-1.3483,-1.3487,-1.3496,-1.3483,-1.3483,-1.3489,-1.3491,-1.3464,-1.3463,-1.3474,-1.3458,-1.3476,-1.3475,-1.3473,-1.3377,-1.3369,-1.3489,-1.3489,-1.3489,-1.3489,-1.3489,-1.3489,-1.3612,-1.3635,-1.3615,-1.3632,-1.3616,-1.3625,-1.3621,-1.3615,-1.3605,-1.3613,-1.3615,-1.3597,-1.3579,-1.3576,-1.3577,-1.3569,-1.3571,-1.3595,-1.3582,-1.3493,-1.3479,-1.3466,-1.3459,-1.3596,-1.3596,-1.3677,-1.3677,-1.3678]},{"header":{"parameterUnit":"m.s-1","parameterCategory":1,"la1":30.2991,"la2":30.254,"lo1":-89.0895,"lo2":-89.0444,"dy":0.0017,"dx":0.0017,"nx":28,"ny":28,"refTime":"2024-12-16T03:00:00:Z","depth":0,"parameterNumber":3,"parameterNumberName":"V-component_of_WINDS"},"data":[0,0,0,0,0,0,0,0,0,0,0,0,0,0,0,0,0,0,0,0,0,0,0,0,0,0,0,0,0,0,0,0,0,0,0,0,0,0,0,0,0,0,0,0,0,0,0,0,0,0,0,0,0,0,0,0,0,0,-0.2498,-0.2499,0,-0.2541,-0.2541,-0.2542,-0.2526,-0.2525,-0.2524,-0.2523,-0.2568,-0.257,-0.2572,0,0,0,0,0,0,0,0,0,0,0,0,0,-0.2403,-0.2405,-0.2498,-0.2499,-0.2499,-0.2541,-0.2541,-0.2542,-0.2526,-0.2525,-0.2524,-0.2523,-0.2567,-0.257,-0.2572,0,0,0,0,0,0,0,0,0,0,0,0,0,-0.2445,-0.2406,-0.2498,-0.2496,-0.2497,-0.2541,-0.2541,-0.2542,-0.2526,-0.2525,-0.2523,-0.2522,-0.2566,-0.2569,-0.2573,-0.2621,0,0,-0.2582,-0.2584,0,0,0,0,0,0,0,0,-0.2443,-0.2449,-0.2496,-0.2497,-0.2497,-0.2526,-0.2524,-0.2569,-0.2527,-0.2515,-0.2523,-0.2521,-0.2555,-0.2559,-0.2571,-0.2623,-0.2625,-0.2582,-0.2584,-0.2586,-0.2587,0,0,0,0,0,0,0,-0.244,-0.2447,-0.2515,-0.2497,-0.2497,-0.2493,-0.2498,-0.2533,-0.2543,-0.2516,-0.2515,-0.252,-0.2555,-0.2568,-0.2571,-0.2626,-0.2582,-0.2585,-0.2587,-0.2588,-0.272,-0.2722,0,0,0,0,0,0,-0.2437,-0.2444,-0.2514,-0.2516,-0.2466,-0.2496,-0.2501,-0.2519,-0.2543,-0.2545,-0.2521,-0.2519,-0.2563,-0.2568,-0.2573,-0.2632,-0.2586,-0.2589,-0.259,-0.2719,-0.272,-0.2722,0,0,0,0,0,0,-0.2435,-0.2443,-0.2512,-0.248,-0.2489,-0.2499,-0.2519,-0.252,-0.2532,-0.2547,-0.2548,-0.2532,-0.2562,-0.2569,-0.2609,-0.2633,-0.259,-0.2593,-0.2717,-0.2719,-0.2721,-0.275,0,0,0,0,0,0,-0.2432,-0.2442,-0.2461,-0.2481,-0.249,-0.2548,-0.2521,-0.2522,-0.2538,-0.2535,-0.2557,-0.2559,-0.2561,-0.2605,-0.2612,-0.2637,-0.2595,-0.2715,-0.2718,-0.2721,-0.2747,-0.2753,-0.2758,0,0,0,0,0,-0.2429,-0.2468,-0.2462,-0.2471,-0.2514,-0.2549,-0.2555,-0.2556,-0.254,-0.2559,-0.2567,-0.2559,-0.2629,-0.2609,-0.2617,-0.2643,-0.2713,-0.2717,-0.272,-0.2744,-0.2752,-0.2758,0,0,0,0,0,0,-0.2452,-0.2471,-0.2465,-0.2511,-0.2529,-0.2546,-0.2571,-0.2564,-0.2587,-0.2584,-0.2584,-0.2589,-0.2631,-0.2641,-0.2618,-0.2691,-0.2669,-0.2674,-0.2684,-0.2691,-0.2696,-0.2694,-0.2598,0,0,0,0,0,-0.2463,-0.2489,-0.2504,-0.2544,-0.2553,-0.256,-0.2575,-0.2574,-0.2593,-0.26,-0.2612,-0.263,-0.2656,-0.2674,-0.2699,-0.2747,-0.2752,-0.2769,-0.2775,-0.2779,-0.2785,-0.2811,-0.2819,-0.2734,-0.2734,-0.2734,0,0,-0.2485,-0.2498,-0.2515,-0.2549,-0.2562,-0.259,-0.2567,-0.2597,-0.2618,-0.2605,-0.2644,-0.2653,-0.2674,-0.2718,-0.2739,-0.2728,-0.2809,-0.2784,-0.2787,-0.279,-0.2815,-0.2823,-0.2831,-0.2737,-0.2736,-0.2736,0,0,-0.254,-0.2552,-0.2587,-0.26,-0.2621,-0.2625,-0.2633,-0.2651,-0.2657,-0.2696,-0.2687,-0.2711,-0.2756,-0.2771,-0.2784,-0.2842,-0.2835,-0.285,-0.2881,-0.2906,-0.2913,-0.2919,-0.294,-0.2948,-0.2855,-0.2855,-0.2855,0,-0.2566,-0.2607,-0.2606,-0.2637,-0.2652,-0.264,-0.2675,-0.2688,-0.2716,-0.2726,-0.2713,-0.2769,-0.2781,-0.283,-0.2844,-0.2854,-0.2864,-0.2849,-0.2912,-0.2918,-0.2923,-0.2944,-0.2952,-0.2857,-0.2857,-0.2857,-0.2856,0,-0.2638,-0.2666,-0.2691,-0.2718,-0.2735,-0.2768,-0.2771,-0.2789,-0.2786,-0.2792,-0.2831,-0.2845,-0.2873,-0.2884,-0.2882,-0.2931,-0.2924,-0.2911,-0.2889,-0.2933,-0.2953,-0.296,-0.286,-0.2859,-0.2858,-0.2858,0,0,-0.2712,-0.2735,-0.2744,-0.2755,-0.2776,-0.2798,-0.2829,-0.2856,-0.2871,-0.2889,-0.2917,-0.2954,-0.2942,-0.2957,-0.2956,-0.2978,-0.3024,-0.2963,-0.2963,-0.2975,-0.308,-0.3091,-0.31,-0.3018,-0.3019,-0.3021,-0.3079,0,-0.2769,-0.2825,-0.2824,-0.2876,-0.2902,-0.289,-0.2917,-0.2933,-0.2938,-0.2961,-0.2967,-0.2994,-0.2976,-0.2985,-0.3006,-0.3014,-0.3045,-0.3009,-0.3044,-0.3045,-0.3041,-0.311,-0.3121,-0.3176,-0.3086,-0.3087,-0.3088,0,-0.2845,-0.2865,-0.2919,-0.2935,-0.2946,-0.2971,-0.2994,-0.3016,-0.3032,-0.3035,-0.3051,-0.3045,-0.3077,-0.3052,-0.3097,-0.3072,-0.3086,-0.3092,-0.3094,-0.3099,-0.3071,-0.3118,-0.3193,-0.3202,-0.31,-0.3099,-0.3098,0,-0.2894,-0.2935,-0.2972,-0.2982,-0.3001,-0.3019,-0.3027,-0.3043,-0.3058,-0.3078,-0.3088,-0.3111,-0.3125,-0.3143,-0.3144,-0.3126,-0.3189,-0.3164,-0.3193,-0.3193,-0.3209,-0.3208,-0.3289,-0.3215,-0.3214,-0.3214,-0.3214,0,-0.296,-0.2994,-0.2995,-0.3019,-0.3056,-0.3053,-0.309,-0.3097,-0.311,-0.3135,-0.3125,-0.3149,-0.3148,-0.3172,-0.3173,-0.3209,-0.3215,-0.3218,-0.3219,-0.322,-0.322,-0.3231,-0.3228,-0.3216,-0.3216,-0.3216,-0.3215,0,-0.3023,-0.3025,-0.3065,-0.3079,-0.3083,-0.311,-0.3122,-0.3144,-0.3147,-0.3178,-0.3185,-0.3191,-0.3218,-0.322,-0.3252,-0.3253,-0.3297,-0.3293,-0.3292,-0.3292,-0.3321,-0.3318,-0.3412,-0.3425,-0.3341,-0.3342,-0.3343,0,-0.3066,-0.3091,-0.3107,-0.3122,-0.3132,-0.3157,-0.3172,-0.317,-0.3186,-0.3206,-0.3226,-0.3251,-0.3272,-0.3316,-0.3323,-0.3347,-0.3344,-0.3375,-0.3348,-0.3348,-0.3346,-0.3345,-0.3348,-0.3381,-0.3382,-0.3383,-0.3383,0,-0.3142,-0.3141,-0.3163,-0.3185,-0.3203,-0.3221,-0.3237,-0.325,-0.325,-0.3268,-0.3295,-0.3311,-0.3343,-0.3369,-0.3392,-0.34,-0.3392,-0.3391,-0.3399,-0.3403,-0.3402,-0.3404,-0.3308,-0.339,-0.3389,-0.3389,-0.3388,-0.3388,-0.3197,-0.3219,-0.3233,-0.3258,-0.3269,-0.3284,-0.3306,-0.3311,-0.3333,-0.3359,-0.3355,-0.3386,-0.34,-0.343,-0.3441,-0.3464,-0.3454,-0.3465,-0.3469,-0.3472,-0.3476,-0.3396,-0.3468,-0.3468,-0.3468,-0.3468,-0.3467,0,-0.3273,-0.3281,-0.3304,-0.3326,-0.3346,-0.3334,-0.3351,-0.3368,-0.3395,-0.3409,-0.3429,-0.346,-0.3484,-0.3492,-0.3516,-0.3533,-0.353,-0.354,-0.354,-0.3542,-0.3483,-0.3474,-0.3542,-0.3542,-0.3542,-0.3542,-0.3542,-0.3542,-0.3315,-0.3352,-0.3353,-0.3395,-0.3403,-0.3432,-0.3443,-0.3456,-0.3467,-0.3502,-0.3522,-0.3527,-0.3538,-0.3563,-0.3585,-0.3586,-0.3596,-0.3608,-0.3608,-0.3554,-0.3546,-0.3539,-0.3531,-0.361,-0.361,-0.3666,-0.3666,-0.3667]}]]